Location: Chinquapin
(37.6499°N, 119.7052°W)
Time: 19:05:27
(UTC+00:00)

Daily predictions for brighter satellites

Satellite Brightness Start Highest point End
(mag) Time Altitude Azimuth Time Altitude Azimuth Time Altitude Azimuth
SJ 16-02 2.5 12:22:31 36° SE 12:22:31 36° SE 12:25:08 10° SSE
SL-16 R/B 2.3 12:24:24 60° N 12:24:24 60° N 12:29:09 10° NNE
Aureole 3 3.9 12:29:00 10° S 12:34:53 80° W 12:39:47 10° N
Cosmos 304 Rocket 3.5 12:39:00 80° W 12:39:06 81° WSW 12:43:51 10° SSE
Cosmos 371 Rocket 3.1 12:39:48 72° NW 12:40:15 82° WSW 12:45:04 10° SSE
Cosmos 2346 Rocket 4.3 12:38:07 10° SSW 12:44:12 69° W 12:50:15 10° N
Cosmos 2233 Rocket 4.0 12:42:19 26° NNW 12:45:46 57° W 12:51:48 10° SSW
Cosmos 1447 Rocket 4.4 12:42:30 10° SSW 12:48:43 67° W 12:55:02 10° N
Cosmos 1400 Rocket 4.0 12:47:14 11° N 12:50:25 37° ENE 12:53:48 10° SSE
Cosmos 2061 Rocket 4.0 12:46:14 10° NNW 12:52:13 56° W 12:58:15 10° SSW
Cosmos 1674 Rocket 3.9 12:52:41 10° S 12:57:03 66° E 13:01:26 10° NNE
Cosmos 1818 4.2 12:53:09 10° SSW 12:58:27 57° ESE 13:03:46 10° NE
H-2A R/B 3.5 13:00:05 15° S 13:00:51 17° SSE 13:03:51 10° SE
Cosmos 1452 Rocket 3.4 12:58:33 10° SSW 13:03:46 90° ESE 13:09:01 10° NNE
Cosmos 1331 Rocket 3.9 13:05:02 10° SSW 13:10:13 61° WNW 13:15:24 10° N
Cosmos 1943 3.1 13:04:51 10° SSW 13:10:27 85° WNW 13:16:06 10° NNE
Cosmos 1850 Rocket 4.4 13:07:30 10° NNW 13:12:39 64° ENE 13:17:46 10° SSE
Chandra Rocket (1) 4.2 13:09:51 17° SW 13:13:15 33° S 13:25:39 10° ESE
Cosmos 2369 Rocket 2.1 13:08:25 11° NNW 13:13:52 88° WSW 13:19:33 10° SSE
NOAA 12 4.0 13:09:19 10° NNE 13:14:39 85° WNW 13:19:56 10° SSW
CZ-4 R/B 3.7 13:09:56 10° N 13:14:43 76° WNW 13:19:22 10° SSW
Cosmos 2297 3.6 13:09:28 11° NNW 13:14:57 89° WSW 13:20:33 10° SSE
Meteor 1-11 4.3 13:11:36 10° S 13:17:28 88° W 13:23:20 10° N
SWARM C 4.5 13:14:54 10° SSW 13:18:09 58° W 13:21:26 10° N
SWARM A 4.0 13:15:00 10° S 13:18:17 72° W 13:21:36 10° N
Cosmos 1378 Rocket 3.8 13:18:22 10° SSW 13:22:23 41° W 13:26:27 10° N
Cosmos 2221 Rocket 3.6 13:22:21 10° S 13:26:52 89° WNW 13:31:25 10° N
Cosmos 1656 Rocket 4.4 13:27:08 21° WNW 13:29:51 31° WSW 13:34:42 10° SSW
Cosmos 2151 Rocket 3.5 13:29:27 10° NNW 13:33:52 65° W 13:38:14 10° S
Cosmos 1072 Rocket 4.4 13:30:06 10° N 13:36:14 73° W 13:42:25 10° S
Lacrosse 5 rocket 2.4 13:33:59 11° NNW 13:36:46 29° NE 13:39:41 10° ESE
USA 229 DEB 4.4 13:34:44 18° W 13:37:42 26° NW 13:43:06 10° NNE
USA 229 4.4 13:34:54 18° W 13:37:54 26° NW 13:43:20 10° NNE
Lacrosse 4 Rocket 3.2 13:35:55 10° N 13:39:16 26° ENE 13:42:33 10° ESE
Okean 1 Rocket 3.0 13:36:43 10° N 13:41:01 88° W 13:45:19 10° S
Hubble Space Telescope 3.1 13:39:24 10° SSW 13:41:44 16° SSE 13:44:04 10° SE
Helios 1A Rocket 2.6 13:40:49 10° S 13:44:04 50° W 13:47:21 10° NNW
USA 267 4.0 13:39:07 10° NNE 13:44:52 34° NNW 13:50:18 11° W
Sich 1 Rocket 3.5 13:41:33 10° N 13:46:04 77° W 13:50:29 10° S
Cosmos 1484 Rocket 2.4 13:44:48 10° N 13:48:20 78° WNW 13:51:48 10° SSW
Cosmos 968 Rocket 3.9 13:43:45 10° NNW 13:48:41 43° WSW 13:53:35 10° S
COSMO-SKYMED 1 2.5 13:45:53 10° S 13:49:54 57° W 13:53:59 10° NNW
ATLAS 3B R/B 3.9 13:50:31 10° W 13:56:39 26° NW 14:03:02 10° NNE
CENTAUR R/B 3.5 13:48:57 10° NW 13:57:35 62° WSW 14:06:53 10° SSE
BREEZE-M DEB (TANK) 3.0 13:55:54 14° WNW 13:57:49 31° N 14:01:49 10° NE
IRS-1D 4.4 13:54:49 10° NNW 13:58:47 25° WNW 14:02:45 10° WSW
Cosmos 292 Rocket 4.0 13:54:09 10° NNW 13:58:57 76° ENE 14:03:40 10° SSE
SL-8 R/B 3.6 13:54:13 10° WSW 13:58:59 82° NNW 14:03:45 10° NE
NOSS 2-2 (C) 4.0 13:57:27 10° NW 14:01:50 79° WSW 14:08:04 10° SSE
IGS 5A 3.3 13:58:12 10° N 14:02:11 82° WNW 14:06:08 10° SSW
SL-16 R/B 4.0 14:07:11 10° WNW 14:08:33 11° NW 14:09:55 10° NNW
Cosmos 1975 Rocket 3.3 14:04:24 10° S 14:08:38 74° E 14:12:56 10° N
Cosmos 1441 Rocket 3.3 14:06:49 10° SSW 14:09:57 38° WNW 14:13:06 10° N
Cosmos 1302 Rocket 4.4 14:06:33 10° SW 14:11:21 39° WNW 14:16:12 10° N
Cosmos 1315 Rocket 3.9 14:09:15 10° N 14:12:57 45° ENE 14:16:38 10° SSE
Cosmos 1992 Rocket 4.0 14:10:40 10° SSW 14:15:50 69° WNW 14:21:03 10° NNE
USA 234 3.4 14:12:12 10° SE 14:18:47 88° SW 14:25:23 10° NW
